Weather History for Bellingham, WA

Change the Weather History Date:

Saturday, May 25, 2013

  Actual Average Record
Temperature  
Mean Temperature 57 °F 56 °F  
Max Temperature 63 °F 64 °F 80 °F (1979)
Min Temperature 51 °F 47 °F 35 °F (1972)
Degree Days  
Heating Degree Days 8 9  
Month to date heating degree days 226 291  
Cooling Degree Days 0 0  
Month to date cooling degree days 0 0  
Year to date cooling degree days 0 0  
Growing Degree Days 6 (Base 50)    
Moisture  
Dew Point 46 °F    
Average Humidity 69    
Maximum Humidity 89    
Minimum Humidity 48    
Precipitation  
Precipitation T in 0.08 in 0.61 in (1984)
Month to date precipitation 1.68 1.99  
Year to date precipitation 12.35 15.59  
Sea Level Pressure  
Sea Level Pressure 30.03 in    
Wind  
Wind Speed 5 mph (South)    
Max Wind Speed 15 mph    
Max Gust Speed 21 mph    
Visibility 10 miles    
Events      
T = Trace of Precipitation, MM = Missing Value Source: NWS Daily Summary

Daily Weather History Graph

Daily Weather History Graph

Search for Another Location

Airport:

Trip Planner

Search our weather history database for the weather conditions in past years. The results will help you decide how hot, cold, wet, or windy it might be!

Date:

Astronomy

May. 25, 2013 Rise Set
Actual Time 5:16 AM PDT 8:58 PM PDT
Civil Twilight 4:37 AM PDT 9:38 PM PDT
Nautical Twilight 3:43 AM PDT 10:32 PM PDT
Astronomical Twilight 2:26 AM PDT 11:51 PM PDT
Moon 9:50 PM PDT (5/25) 5:50 AM PDT (5/25)
Length of Visible Light 17h 01m
Length of Day
15h 41m
Waxing Gibbous, 99% of the Moon is Illuminated
May 25
Waxing Gibbous
May 31
Last Quarter
Jun 8
New
Jun 16
First Quarter
Jun 23
Full

Hourly Weather History & Observations

Time (PDT) Temp. Dew Point Humidity Pressure Visibility Wind Dir Wind Speed Gust Speed Precip Events Conditions
12:53 AM 52.0 °F 46.0 °F 80% 30.04 in 10.0 mi South 4.6 mph - N/A   Overcast
1:53 AM 53.1 °F 46.0 °F 77% 30.04 in 10.0 mi SSE 3.5 mph - N/A   Overcast
2:53 AM 52.0 °F 46.0 °F 80% 30.04 in 10.0 mi South 6.9 mph - N/A   Scattered Clouds
3:53 AM 52.0 °F 46.0 °F 80% 30.04 in 10.0 mi SSE 4.6 mph - N/A   Mostly Cloudy
4:27 AM 51.8 °F 46.4 °F 82% 30.01 in 10.0 mi Variable 3.5 mph - N/A   Overcast
4:53 AM 52.0 °F 46.9 °F 83% 30.03 in 10.0 mi SSE 8.1 mph - N/A   Overcast
5:53 AM 52.0 °F 46.0 °F 80% 30.03 in 10.0 mi SSE 9.2 mph - N/A   Overcast
6:53 AM 52.0 °F 46.0 °F 80% 30.04 in 10.0 mi SSE 6.9 mph - N/A   Overcast
7:53 AM 52.0 °F 46.9 °F 83% 30.05 in 10.0 mi South 9.2 mph - 0.00 in   Overcast
8:21 AM 53.6 °F 46.4 °F 77% 30.03 in 10.0 mi South 9.2 mph - N/A   Overcast
8:53 AM 55.9 °F 48.0 °F 75% 30.05 in 10.0 mi SSE 9.2 mph - N/A   Scattered Clouds
9:53 AM 55.0 °F 46.0 °F 72% 30.05 in 10.0 mi South 10.4 mph - N/A   Overcast
10:53 AM 55.9 °F 46.0 °F 69% 30.05 in 10.0 mi SSE 11.5 mph 19.6 mph N/A   Mostly Cloudy
11:53 AM 55.9 °F 46.9 °F 72% 30.05 in 10.0 mi Variable 5.8 mph - N/A   Mostly Cloudy
12:53 PM 57.0 °F 46.9 °F 69% 30.05 in 10.0 mi South 8.1 mph - N/A   Mostly Cloudy
1:53 PM 60.1 °F 46.0 °F 60% 30.05 in 10.0 mi South 8.1 mph - N/A   Scattered Clouds
2:53 PM 60.1 °F 44.1 °F 55% 30.04 in 10.0 mi South 9.2 mph - N/A   Mostly Cloudy
3:53 PM 61.0 °F 45.0 °F 56% 30.04 in 10.0 mi SSE 8.1 mph - N/A   Clear
4:53 PM 62.1 °F 43.0 °F 50% 30.03 in 10.0 mi SSW 6.9 mph - N/A   Partly Cloudy
5:53 PM 62.1 °F 43.0 °F 50% 30.02 in 10.0 mi Variable 3.5 mph - N/A   Clear
6:53 PM 62.1 °F 43.0 °F 50% 30.02 in 10.0 mi Calm Calm - N/A   Scattered Clouds
7:53 PM 60.1 °F 46.9 °F 62% 30.02 in 10.0 mi Calm Calm - N/A   Overcast
8:53 PM 55.0 °F 48.0 °F 77% 30.02 in 10.0 mi Calm Calm - N/A   Partly Cloudy
9:53 PM 54.0 °F 48.0 °F 80% 30.01 in 10.0 mi Calm Calm - N/A   Scattered Clouds
10:53 PM 52.0 °F 48.9 °F 89% 30.01 in 10.0 mi Calm Calm - N/A   Mostly Cloudy
11:53 PM 53.1 °F 48.9 °F 86% 30.01 in 10.0 mi Calm Calm - N/A   Overcast